Date String (YYYY-MM-DD hh:mm:ss) UTC,Instrument flags,absolute air pressure of the measurement (hPa),sample flow rate (lpm),inlet stack bypass flow (lpm),air temperature of the measurement (°C),ambient temperature measured by the external sensor (°C),aerosol sample conditioner tube jacket temperature (°C),OPC LED temperature (°C),internal box temperature (°C),relative humidity of the measurement (%),span deviation,mass concentration of particles derived from Lorenz-Mie calculation of OPC scattering (μg/m³),mass concentration of particles derived from Lorenz-Mie calculation of OPC scattering (μg/m³),mass concentration of particles derived from Lorenz-Mie calculation of OPC scattering (μg/m³)
DateTimeUTC,F1_M11,P_M11,Q1_M11,Q2_M11,T1_M11,T2_M11,T3_M11,T4_M11,T5_M11,U1_M11,ZSPAN_M11,X0_M11,X2_M11,X1_M11
2023-08-19 17:00:00,SystemResetWarning,0834.1,4.99,000.00,028.6,025.8,000.0,036.6,029.6,32.7,0000.0,0009.08,0003.71,0003.15
2023-08-19 17:01:00,SystemResetWarning,0834.1,4.99,000.00,028.6,025.9,000.0,036.6,029.7,32.4,0000.0,0009.16,0003.71,0003.14
2023-08-19 17:02:00,SystemResetWarning,0834.1,4.99,000.00,028.6,024.9,000.0,036.6,029.4,32.5,0000.0,0009.29,0003.72,0003.14
2023-08-19 17:03:00,SystemResetWarning,0834.0,5.01,000.00,028.6,024.1,000.0,036.5,029.3,32.8,0000.0,0008.63,0003.66,0003.12
2023-08-19 17:04:00,SystemResetWarning,0834.0,5.01,000.00,028.5,024.3,000.0,036.5,029.2,33.2,0000.0,0008.56,0003.65,0003.12
2023-08-19 17:05:00,SystemResetWarning,0834.0,5.01,000.00,028.4,024.6,000.0,036.5,029.2,33.1,0000.0,0008.20,0003.59,0003.12
2023-08-19 17:06:00,SystemResetWarning,0834.1,5.00,000.00,028.4,025.0,000.0,036.5,029.3,33.3,0000.0,0008.00,0003.55,0003.11
2023-08-19 17:07:00,SystemResetWarning,0834.1,5.00,000.00,028.4,025.4,000.0,036.6,029.4,33.2,0000.0,0008.40,0003.55,0003.11
2023-08-19 17:08:00,SystemResetWarning,0834.1,5.00,000.00,028.4,025.8,000.0,036.6,029.5,33.9,0000.0,0009.22,0003.58,0003.11
2023-08-19 17:09:00,SystemResetWarning,0834.0,5.00,000.00,028.4,025.9,000.0,036.6,029.6,32.8,0000.0,0009.09,0003.59,0003.11
2023-08-19 17:10:00,SystemResetWarning,0834.0,4.98,000.00,028.4,024.8,000.0,036.5,029.4,32.9,0000.0,0009.05,0003.59,0003.11
2023-08-19 17:11:00,SystemResetWarning,0834.0,5.01,000.00,028.3,024.1,000.0,036.4,029.2,33.8,0000.0,0008.97,0003.58,0003.12
2023-08-19 17:12:00,SystemResetWarning,0833.9,5.00,000.00,028.3,024.3,000.0,036.4,029.2,34.9,0000.0,0009.06,0003.62,0003.13
2023-08-19 17:13:00,SystemResetWarning,0834.0,5.00,000.00,028.3,024.6,000.0,036.4,029.2,34.9,0000.0,0009.32,0003.64,0003.14
2023-08-19 17:14:00,SystemResetWarning,0834.0,5.01,000.00,028.4,025.0,000.0,036.4,029.4,33.4,0000.0,0009.57,0003.66,0003.15
2023-08-19 17:15:00,SystemResetWarning,0834.0,5.01,000.00,028.6,025.5,000.0,036.4,029.5,32.9,0000.0,0010.20,0003.66,0003.17
2023-08-19 17:16:00,SystemResetWarning,0834.0,5.01,000.00,028.6,025.8,000.0,036.5,029.6,33.0,0000.0,0010.74,0003.70,0003.18
2023-08-19 17:17:00,SystemResetWarning,0834.0,5.00,000.00,028.7,026.2,000.0,036.5,029.7,33.4,0000.0,0011.26,0003.73,0003.19
2023-08-19 17:18:00,SystemResetWarning,0834.0,4.99,000.00,028.8,025.7,000.0,036.5,029.7,32.8,0000.0,0011.37,0003.77,0003.21
2023-08-19 17:19:00,SystemResetWarning,0834.0,5.00,000.00,028.7,024.5,000.0,036.5,029.4,32.6,0000.0,0010.87,0003.77,0003.22
2023-08-19 17:20:00,SystemResetWarning,0833.9,5.01,000.00,028.7,024.3,000.0,036.4,029.3,33.3,0000.0,0010.22,0003.77,0003.23
2023-08-19 17:21:00,SystemResetWarning,0834.0,5.01,000.00,028.6,024.6,000.0,036.5,029.3,32.8,0000.0,0010.25,0003.79,0003.24
2023-08-19 17:22:00,SystemResetWarning,0834.0,4.99,000.00,028.6,024.9,000.0,036.5,029.3,33.3,0000.0,0010.24,0003.80,0003.23
2023-08-19 17:23:00,SystemResetWarning,0834.0,5.00,000.00,028.6,025.4,000.0,036.6,029.5,33.6,0000.0,0010.34,0003.78,0003.23
2023-08-19 17:24:00,SystemResetWarning,0834.0,5.00,000.00,028.6,025.7,000.0,036.6,029.6,33.6,0000.0,0009.79,0003.73,0003.21
2023-08-19 17:25:00,SystemResetWarning,0834.0,4.99,000.00,028.6,026.1,000.0,036.6,029.7,33.1,0000.0,0009.53,0003.70,0003.20
2023-08-19 17:26:00,SystemResetWarning,0834.0,4.99,000.00,028.6,025.6,000.0,036.6,029.6,33.0,0000.0,0008.87,0003.69,0003.20
2023-08-19 17:27:00,SystemResetWarning,0834.0,5.00,000.00,028.6,024.3,000.0,036.5,029.4,33.6,0000.0,0008.39,0003.68,0003.20
2023-08-19 17:28:00,SystemResetWarning,0834.0,5.01,000.00,028.5,024.0,000.0,036.4,029.3,33.3,0000.0,0008.02,0003.71,0003.21
2023-08-19 17:29:00,SystemResetWarning,0833.9,5.01,000.00,028.4,024.4,000.0,036.5,029.3,32.8,0000.0,0007.45,0003.69,0003.21
2023-08-19 17:30:00,SystemResetWarning,0834.0,5.00,000.00,028.4,024.7,000.0,036.5,029.3,33.5,0000.0,0006.66,0003.66,0003.21
2023-08-19 17:31:00,SystemResetWarning,0834.0,5.00,000.00,028.4,025.2,000.0,036.5,029.4,33.4,0000.0,0006.73,0003.67,0003.22
2023-08-19 17:32:00,SystemResetWarning,0834.0,5.00,000.00,028.4,025.6,000.0,036.5,029.5,33.2,0000.0,0007.49,0003.69,0003.23
2023-08-19 17:33:00,SystemResetWarning,0834.0,5.00,000.00,028.4,025.9,000.0,036.5,029.6,33.7,0000.0,0007.90,0003.70,0003.26
2023-08-19 17:34:00,SystemResetWarning,0834.0,5.00,000.00,028.4,026.3,000.0,036.6,029.7,33.7,0000.0,0007.69,0003.72,0003.29
2023-08-19 17:35:00,SystemResetWarning,0833.9,4.98,000.00,028.4,025.8,000.0,036.5,029.6,33.8,0000.0,0007.68,0003.78,0003.31
2023-08-19 17:36:00,SystemResetWarning,0833.9,5.00,000.00,028.4,024.6,000.0,036.4,029.4,33.8,0000.0,0008.34,0003.80,0003.34
2023-08-19 17:37:00,SystemResetWarning,0833.9,5.01,000.00,028.3,024.3,000.0,036.3,029.3,33.0,0000.0,0008.46,0003.83,0003.36
2023-08-19 17:38:00,SystemResetWarning,0833.9,5.00,000.00,028.2,024.5,000.0,036.4,029.2,33.0,0000.0,0008.76,0003.90,0003.38
2023-08-19 17:39:00,SystemResetWarning,0833.9,4.99,000.00,028.2,024.9,000.0,036.4,029.3,33.7,0000.0,0008.70,0003.90,0003.38
2023-08-19 17:40:00,SystemResetWarning,0833.8,5.00,000.00,028.2,025.3,000.0,036.4,029.4,33.3,0000.0,0008.79,0003.93,0003.38
2023-08-19 17:41:00,SystemResetWarning,0833.9,5.00,000.00,028.2,025.7,000.0,036.4,029.5,33.0,0000.0,0008.83,0003.94,0003.38
2023-08-19 17:42:00,SystemResetWarning,0833.9,5.01,000.00,028.2,026.1,000.0,036.5,029.6,33.0,0000.0,0008.86,0003.96,0003.38
2023-08-19 17:43:00,SystemResetWarning,0833.9,4.99,000.00,028.3,025.7,000.0,036.4,029.6,33.2,0000.0,0009.33,0003.96,0003.37
2023-08-19 17:44:00,SystemResetWarning,0833.9,4.99,000.00,028.2,024.4,000.0,036.3,029.3,33.5,0000.0,0009.06,0003.97,0003.36
2023-08-19 17:45:00,SystemResetWarning,0833.9,5.00,000.00,028.1,024.1,000.0,036.2,029.2,34.7,0000.0,0009.15,0003.98,0003.35
2023-08-19 17:46:00,SystemResetWarning,0834.0,5.02,000.00,028.1,024.5,000.0,036.2,029.2,34.3,0000.0,0009.11,0003.93,0003.33
2023-08-19 17:47:00,SystemResetWarning,0833.9,4.98,000.00,028.1,024.8,000.0,036.2,029.3,33.5,0000.0,0008.67,0003.92,0003.32
2023-08-19 17:48:00,SystemResetWarning,0834.0,5.00,000.00,028.2,025.2,000.0,036.3,029.4,33.2,0000.0,0008.53,0003.91,0003.30
2023-08-19 17:49:00,SystemResetWarning,0833.9,5.01,000.00,028.2,025.6,000.0,036.3,029.5,32.8,0000.0,0008.52,0003.85,0003.29
2023-08-19 17:50:00,SystemResetWarning,0833.9,4.99,000.00,028.3,026.0,000.0,036.4,029.6,31.9,0000.0,0008.78,0003.81,0003.28
2023-08-19 17:51:00,SystemResetWarning,0833.9,4.99,000.00,028.3,026.3,000.0,036.4,029.7,32.7,0000.0,0008.97,0003.76,0003.27
2023-08-19 17:52:00,SystemResetWarning,0833.9,5.00,000.00,028.3,025.9,000.0,036.3,029.7,33.2,0000.0,0009.50,0003.76,0003.27
2023-08-19 17:53:00,SystemResetWarning,0833.9,5.00,000.00,028.3,024.6,000.0,036.3,029.4,33.4,0000.0,0009.53,0003.78,0003.27
2023-08-19 17:54:00,SystemResetWarning,0833.9,5.01,000.00,028.2,024.2,000.0,036.2,029.3,34.6,0000.0,0010.42,0003.76,0003.27
2023-08-19 17:55:00,SystemResetWarning,0833.8,4.98,000.00,028.2,024.5,000.0,036.2,029.3,35.2,0000.0,0010.59,0003.73,0003.28
2023-08-19 17:56:00,SystemResetWarning,0833.8,5.03,000.00,028.2,024.9,000.0,036.3,029.3,35.8,0000.0,0010.55,0003.72,0003.28
2023-08-19 17:57:00,SystemResetWarning,0833.8,5.00,000.00,028.5,025.3,000.0,036.3,029.6,34.6,0000.0,0010.59,0003.75,0003.29
2023-08-19 17:58:00,SystemResetWarning,0833.9,4.98,000.00,028.7,025.7,000.0,036.4,029.7,33.8,0000.0,0010.56,0003.75,0003.30
2023-08-19 17:59:00,SystemResetWarning,0833.8,5.02,000.00,028.9,026.1,000.0,036.4,029.8,33.3,0000.0,0010.70,0003.77,0003.30
